Grand Prairie, TX

5:05 PM CST on February 24, 2017 (GMT -0600)
Grand Prairie Municipal

Weather History for KGPM - July, 2013

Change the Weather History Date:

Saturday, July 27, 2013

  Actual Average (KRBD) Record (KRBD)
Temperature  
Mean Temperature 80 °F -  
Max Temperature 89 °F 95 °F 105 °F (2011)
Min Temperature 71 °F 74 °F 66 °F (2004)
Cooling Degree Days 15    
Growing Degree Days 30 (Base 50)    
Moisture  
Dew Point 65 °F    
Average Humidity 66    
Maximum Humidity 83    
Minimum Humidity 33    
Precipitation  
Precipitation 0.00 in - - ()
Sea Level Pressure  
Sea Level Pressure 30.00 in    
Wind  
Wind Speed 10 mph (NE)    
Max Wind Speed 15 mph    
Max Gust Speed 22 mph    
Visibility 10 miles    
Events      
Averages and records for this station are not official NWS values.
T = Trace of Precipitation, MM = Missing Value Source: NWS Daily Summary

Daily Weather History Graph

Daily Weather History Graph

Search for Another Location

Airport or City:

Trip Planner

Search our weather history database for the weather conditions in past years. The results will help you decide how hot, cold, wet, or windy it might be!

Date:

Astronomy

Jul. 27, 2013 Rise Set
Actual Time 6:39 AM CDT 8:30 PM CDT
Civil Twilight 6:11 AM CDT 8:57 PM CDT
Nautical Twilight 5:38 AM CDT 9:29 PM CDT
Astronomical Twilight 5:04 AM CDT 10:04 PM CDT
Moon 11:41 PM CDT (7/27) 11:58 AM CDT (7/27)
Length of Visible Light 14h 45m
Length of Day
13h 51m
Waning Gibbous, 70% of the Moon is Illuminated
Jul 27
Waning Gibbous
Jul 29
Last Quarter
Aug 6
New
Aug 14
First Quarter
Aug 20
Full

Hourly Weather History & Observations

Time (CDT) Temp. Heat Index Dew Point Humidity Pressure Visibility Wind Dir Wind Speed Gust Speed Precip Events Conditions
12:15 AM 78.8 °F - 69.8 °F 74% 29.99 in 10.0 mi North 11.5 mph - N/A   Scattered Clouds
12:35 AM 78.8 °F - 69.8 °F 74% 29.99 in 10.0 mi NNE 10.4 mph - N/A   Mostly Cloudy
12:55 AM 77.0 °F - 69.8 °F 78% 29.99 in 10.0 mi NNE 10.4 mph - N/A   Overcast
1:15 AM 77.0 °F - 69.8 °F 78% 30.00 in 10.0 mi North 15.0 mph 18.4 mph N/A   Overcast
1:35 AM 77.0 °F - 68.0 °F 74% 30.00 in 10.0 mi NNE 12.7 mph - N/A   Overcast
1:55 AM 77.0 °F - 68.0 °F 74% 30.00 in 10.0 mi NNE 12.7 mph 21.9 mph N/A   Overcast
2:15 AM 75.2 °F - 68.0 °F 78% 30.00 in 10.0 mi NNE 11.5 mph 17.3 mph N/A   Overcast
2:35 AM 75.2 °F - 68.0 °F 78% 29.99 in 10.0 mi NNE 9.2 mph - N/A   Mostly Cloudy
2:55 AM 73.4 °F - 68.0 °F 83% 30.00 in 10.0 mi NNE 6.9 mph - N/A   Scattered Clouds
3:15 AM 73.4 °F - 68.0 °F 83% 30.00 in 10.0 mi North 4.6 mph - N/A   Scattered Clouds
3:35 AM 73.4 °F - 68.0 °F 83% 30.00 in 10.0 mi North 6.9 mph - N/A   Mostly Cloudy
3:55 AM 73.4 °F - 68.0 °F 83% 30.00 in 10.0 mi North 10.4 mph - N/A   Mostly Cloudy
4:15 AM 73.4 °F - 68.0 °F 83% 29.99 in 10.0 mi North 10.4 mph - N/A   Mostly Cloudy
4:35 AM 73.4 °F - 68.0 °F 83% 29.99 in 10.0 mi North 12.7 mph - N/A   Overcast
4:55 AM 73.4 °F - 66.2 °F 78% 30.00 in 10.0 mi North 13.8 mph - N/A   Overcast
5:15 AM 73.4 °F - 66.2 °F 78% 30.00 in 10.0 mi North 10.4 mph 18.4 mph N/A   Mostly Cloudy
5:35 AM 71.6 °F - 64.4 °F 78% 30.00 in 10.0 mi North 12.7 mph - N/A   Mostly Cloudy
5:55 AM 73.4 °F - 64.4 °F 73% 30.00 in 10.0 mi North 12.7 mph - N/A   Overcast
6:15 AM 73.4 °F - 64.4 °F 73% 30.01 in 10.0 mi NNE 10.4 mph 17.3 mph N/A   Overcast
6:35 AM 71.6 °F - 64.4 °F 78% 30.01 in 10.0 mi North 13.8 mph 18.4 mph N/A   Overcast
6:50 AM 73.4 °F - 66.2 °F 78% 30.01 in 10.0 mi North 11.5 mph 20.7 mph N/A   Overcast
6:55 AM 71.6 °F - 64.4 °F 78% 30.01 in 10.0 mi NNE 12.7 mph 17.3 mph N/A   Mostly Cloudy
7:50 AM 73.4 °F - 66.2 °F 78% 30.04 in 10.0 mi North 11.5 mph 20.7 mph N/A   Overcast
8:50 AM 73.4 °F - 64.4 °F 73% 30.05 in 10.0 mi NNE 11.5 mph - N/A   Mostly Cloudy
9:50 AM 75.2 °F - 64.4 °F 69% 30.05 in 10.0 mi North 11.5 mph 20.7 mph N/A   Scattered Clouds
10:50 AM 78.8 °F - 64.4 °F 61% 30.05 in 10.0 mi NNW 6.9 mph - N/A   Mostly Cloudy
11:50 AM 78.8 °F - 64.4 °F 61% 30.05 in 10.0 mi NNE 6.9 mph - N/A   Mostly Cloudy
12:50 PM 82.4 °F 83.9 °F 64.4 °F 54% 30.04 in 10.0 mi NE 9.2 mph - N/A   Scattered Clouds
1:50 PM 84.2 °F 85.6 °F 64.4 °F 51% 30.03 in 10.0 mi NNE 9.2 mph - N/A   Scattered Clouds
2:54 PM 86.0 °F 86.6 °F 62.6 °F 45% 30.01 in 10.0 mi East 11.5 mph - N/A   Scattered Clouds
3:50 PM 87.8 °F 87.6 °F 60.8 °F 40% 29.99 in 10.0 mi ENE 11.5 mph - N/A   Clear
4:50 PM 89.6 °F 89.5 °F 60.8 °F 38% 29.98 in 10.0 mi NE 11.5 mph - N/A   Clear
5:50 PM 89.6 °F 88.1 °F 57.2 °F 33% 29.96 in 10.0 mi NNE 6.9 mph - N/A   Clear
6:52 PM 87.8 °F 87.1 °F 59.0 °F 38% 29.94 in 10.0 mi NE 5.8 mph - N/A   Clear
7:59 PM 86.0 °F 85.4 °F 59.0 °F 40% 29.93 in 10.0 mi ENE 8.1 mph - N/A   Clear
9:15 PM 80.6 °F 81.5 °F 60.8 °F 51% 29.95 in 10.0 mi ESE 4.6 mph - N/A   Clear
9:35 PM 80.6 °F 81.5 °F 60.8 °F 51% 29.96 in 10.0 mi ESE 4.6 mph - N/A   Clear
9:55 PM 80.6 °F 81.8 °F 62.6 °F 54% 29.98 in 10.0 mi SE 4.6 mph - N/A   Clear
10:15 PM 78.8 °F - 62.6 °F 57% 29.99 in 10.0 mi SE 5.8 mph - N/A   Clear
10:35 PM 78.8 °F - 62.6 °F 57% 30.00 in 10.0 mi SE 4.6 mph - N/A   Clear
10:55 PM 78.8 °F - 62.6 °F 57% 30.00 in 10.0 mi ESE 5.8 mph - N/A   Clear
11:15 PM 77.0 °F - 62.6 °F 61% 30.00 in 10.0 mi SE 5.8 mph - N/A   Clear
11:35 PM 77.0 °F - 62.6 °F 61% 30.01 in 10.0 mi SSE 3.5 mph - N/A   Clear
11:55 PM 77.0 °F - 62.6 °F 61% 30.00 in 10.0 mi SSE 3.5 mph - N/A   Clear